Regional Weather Roundup
Issued by NWS

Home | Current Version | Previous Version | Graphics & Text | Print | Product List | Glossary On
Versions: 1 2 3 4 5 6 7 8 9 10 11 12 13 14 15 16 17 18 19 20 21 22 23 24 25 26 27 28 29 30 31 32 33 34 35 36 37 38 39 40 41 42 43 44 45 46 47 48 49 50
000
ASUS43 KFSD 131102
RWRSD

WEATHER ROUNDUP FOR SOUTH DAKOTA
NATIONAL WEATHER SERVICE SIOUX FALLS SD
600 AM CDT SUN JUL 13 2014

NOTE: "FAIR" INDICATES FEW OR NO CLOUDS BELOW 12,000 FEET WITH NO
SIGNIFICANT WEATHER AND/OR OBSTRUCTIONS TO VISIBILITY.


SDZ001>005-009-010-012>017-131200-
NORTHWEST AND NORTH CENTRAL SOUTH DAKOTA

CITY           SKY/WX    TMP DP  RH WIND       PRES   REMARKS
BUFFALO          N/A     54  50  86 W7        30.11F
FAITH            N/A     57  54  89 W8        30.13S
MOBRIDGE       CLEAR     58  55  90 NW5       30.05R
$$

SDZ012>016-024>037-041>051-057-063-072>074-131200-
SOUTHWEST AND SOUTH CENTRAL SOUTH DAKOTA

CITY           SKY/WX    TMP DP  RH WIND       PRES   REMARKS
RAPID CTY ARPT CLEAR     58  54  86 N7        30.19S
PIERRE         CLEAR     63  62  97 W5        30.06R
CUSTER         PTCLDY    53  45  74 NW6       30.32S
ELLSWORTH AFB  CLEAR     65  51  60 N13       30.19R
PHILIP         CLEAR     61  57  87 W7        30.12R
PINE RIDGE     CLEAR     57  57 100 W3        30.20S
WINNER         FAIR      63  60  90 S5        30.10R
$$

SDZ004>011-016>023-039-040-131200-
NORTHEAST SOUTH DAKOTA

CITY           SKY/WX    TMP DP  RH WIND       PRES   REMARKS
ABERDEEN       CLEAR     53  52  96 W5        30.02S
WATERTOWN      CLEAR     60  56  86 CALM      30.02R
SISSETON         N/A     54  52  93 SW3       29.99R
$$

SDZ017-020-022-023-036>040-048>070-131200-
SOUTHEAST SOUTH DAKOTA

CITY           SKY/WX    TMP DP  RH WIND       PRES   REMARKS
SIOUX FALLS    PTCLDY    65  62  90 W3        30.02R
HURON          CLEAR     61  59  93 NW6       30.03R
CHAMBERLAIN    CLEAR     61  60  96 CALM      30.07R
MITCHELL       CLEAR     64  61  90 SW5       30.04R
YANKTON        CLEAR     66  63  88 W6        30.05R
$$

ABBREVIATIONS USED IN REMARKS
   TC - TEMPERATURE IN CELSIUS
  WCI - WIND CHILL INDEX
   HX - HEAT INDEX
  VSB - VISIBILITY



USA.gov is the U.S. government's official web portal to all federal, state and local government web resources and services.